Regional Weather Roundup
Issued by NWS Northern Indiana

Home | Current Version | Previous Version | Graphics & Text | Print | Product List | Glossary On
Versions: 1 2 3 4 5 6 7 8 9 10 11 12 13 14 15 16 17 18 19 20 21 22 23 24 25 26 27 28 29 30 31 32 33 34 35 36 37 38 39 40 41 42 43 44 45 46 47 48 49 50
000
ASUS43 KIWX 262300
RWRIWX

KIWX WEATHER ROUNDUP
NATIONAL WEATHER SERVICE NORTHERN INDIANA
700 PM EDT TUE MAY 26 2015

NOTE: "FAIR" INDICATES FEW OR NO CLOUDS BELOW 12,000 FEET WITH NO
SIGNIFICANT WEATHER AND/OR OBSTRUCTIONS TO VISIBILITY.

* THESE STATIONS ARE NOT UNDER NWS QUALITY CONTROL. THEY ALSO MAY NOT
  REPORT WEATHER SUCH AS PRECIPITATION OR FOG.

INZ001>027-270000-
NORTHERN INDIANA

CITY           SKY/WX    TMP DP  RH WIND       PRES   REMARKS
GARY*          PTSUNNY   77  61  57 SW14G32   29.80S
SOUTH BEND     MOSUNNY   75  64  68 S14       29.83F
ELKHART*       MOSUNNY   73  64  73 SW7G17    29.85F
GOSHEN         PTSUNNY   74  63  68 SW20      29.84F
ANGOLA*        MOSUNNY   73  66  78 SW14      29.87S
FORT WAYNE     CLOUDY    74  67  78 S20G26    29.90S
PERU/GRISSOM   MOSUNNY   80  61  52 SW20G30   29.86F

$$
INZ028>050-270000-
CENTRAL INDIANA

CITY           SKY/WX    TMP DP  RH WIND       PRES   REMARKS
LAFAYETTE      CLOUDY    75  60  59 SW12G28   29.87R
KOKOMO*        CLOUDY    75  66  73 S15G21    29.88S
MUNCIE*        PTSUNNY   75  66  73 S13G23    29.92F
INDIANAPOLIS   CLOUDY    77  60  55 SW17G23   29.90F

$$
MIZ043>046-050>051-056>058-064>065-071>073-077>080-270000-
SOUTHWEST LOWER MICHIGAN

CITY           SKY/WX    TMP DP  RH WIND       PRES   REMARKS
BATTLE CREEK   CLOUDY    68  60  75 SW12G20   29.85S
BENTON HARBOR  PTSUNNY   73  65  75 S9        29.79F
COLDWATER*     LGT RAIN  67  60  77 SW13G18   29.88R
HILLSDALE*     CLOUDY    71  70  98 S9G16     29.89F
HOLLAND        CLOUDY    71  64  78 SW15G25   29.80F
GRAND RAPIDS   PTSUNNY   70  66  87 S13       29.80F
KALAMAZOO      CLOUDY    69  62  78 S13       29.83F
STURGIS*       CLOUDY    72  61  68 S9        29.85F
THREE RIVERS*  PTSUNNY   69  60  72 SW9G17    29.85F

$$
OHZ001>008-015>018-024>025-270000-
NORTHWEST OHIO

CITY           SKY/WX    TMP DP  RH WIND       PRES   REMARKS
DEFIANCE       CLOUDY    72  68  87 S13       29.91F
FINDLAY        LGT RAIN  69  66  90 SW14      29.96F
TOLEDO EXPRESS LGT RAIN  69  67  93 S10G20    29.92R
TOLEDO METCALF RAIN      70  65  84 SW20G35   29.94R
LIMA           LGT RAIN  68  68 100 S10       29.96F

$$
AND FOR LAKE MICHIGAN COASTAL AND OPEN LAKE BUOY OBSERVATIONS

STATION/POSITION TEMP    WIND        PRES    VSBY  WAVE
                 AIR SEA DIR/SP/G                  HT/PER
                 (F)     (DEG/KT/KT) (MB)    (MI)  (FT/S)
CALUMET HARBOR    74     190/ 11/ 19   N/A
MICHIGAN CITY     74     180/ 18/ 22   N/A
BURNS HARBOR      75     210/ 23/ 30 1008.8F
SAINT JOSEPH      73     180/  9/ 17 1010.2F
SOUTH LAKE BUOY   48 38  180/ 14/ 14 1008.0F         2/ 4
4 MI NW BRIDGMAN  63 55  220/ 10/ 12   N/A           2/ 4
MICHIGAN CITY     65 52  210/ 12/ 14   N/A           2/ 3

$$
&&



USA.gov is the U.S. government's official web portal to all federal, state and local government web resources and services.